Orlando, FL

12:31 PM EDT on April 27, 2017 (GMT -0400)
Executive

Weather History for KORL - March, 2014

Change the Weather History Date:

Tuesday, March 18, 2014

  Actual Average Record
Temperature  
Mean Temperature 66 °F -  
Max Temperature 75 °F 75 °F 87 °F (2015)
Min Temperature 60 °F 56 °F 48 °F (2005)
Cooling Degree Days 2    
Growing Degree Days 16 (Base 50)    
Moisture  
Dew Point 62 °F    
Average Humidity 83    
Maximum Humidity 97    
Minimum Humidity 41    
Precipitation  
Precipitation 1.18 in - - ()
Sea Level Pressure  
Sea Level Pressure 29.79 in    
Wind  
Wind Speed 13 mph (West)    
Max Wind Speed 28 mph    
Max Gust Speed 38 mph    
Visibility 8 miles    
Events Rain , Thunderstorm    
Averages and records for this station are not official NWS values.
T = Trace of Precipitation, MM = Missing Value Source: NWS Daily Summary

Daily Weather History Graph

Daily Weather History Graph

Search for Another Location

Airport or City:

Trip Planner

Search our weather history database for the weather conditions in past years. The results will help you decide how hot, cold, wet, or windy it might be!

Date:

Astronomy

Mar. 18, 2014 Rise Set
Actual Time 7:31 AM EDT 7:35 PM EDT
Civil Twilight 7:07 AM EDT 7:59 PM EDT
Nautical Twilight 6:40 AM EDT 8:26 PM EDT
Astronomical Twilight 6:13 AM EDT 8:54 PM EDT
Moon 9:38 PM EDT (3/18) 8:30 AM EDT (3/18)
Length of Visible Light 12h 51m
Length of Day
12h 04m
Waning Gibbous, 96% of the Moon is Illuminated
Mar 18
Waning Gibbous
Mar 23
Last Quarter
Mar 30
New
Apr 7
First Quarter
Apr 15
Full

Hourly Weather History & Observations

Time (EDT) Temp. Dew Point Humidity Pressure Visibility Wind Dir Wind Speed Gust Speed Precip Events Conditions
12:02 AM 71.1 °F 69.1 °F 93% 29.69 in 1.8 mi South 12.7 mph 25.3 mph 0.15 in Rain Heavy Rain
12:10 AM 71.1 °F 69.1 °F 93% 29.68 in 2.0 mi South 10.4 mph 25.3 mph 0.20 in Rain Heavy Rain
12:12 AM 71.1 °F 69.1 °F 93% 29.68 in 3.0 mi South 13.8 mph 25.3 mph 0.20 in Rain Heavy Rain
12:22 AM 72.0 °F 70.0 °F 93% 29.68 in 5.0 mi South 10.4 mph - 0.21 in Rain Light Rain
12:35 AM 72.0 °F 70.0 °F 93% 29.67 in 7.0 mi South 10.4 mph - 0.22 in Rain Light Rain
12:53 AM 72.0 °F 70.0 °F 93% 29.68 in 10.0 mi South 10.4 mph - 0.23 in Rain Light Rain
1:13 AM 73.0 °F 71.1 °F 93% 29.66 in 10.0 mi SSW 11.5 mph - 0.03 in Rain Light Rain
1:47 AM 73.4 °F 71.6 °F 94% 29.63 in 1.8 mi SW 8.1 mph - 0.19 in Rain Heavy Rain
1:53 AM 72.0 °F 71.1 °F 97% 29.64 in 2.0 mi SW 9.2 mph - 0.22 in Rain Rain
2:00 AM 72.0 °F 71.1 °F 97% 29.63 in 1.0 mi SW 9.2 mph - 0.19 in Rain Heavy Rain
2:02 AM 72.0 °F 71.1 °F 97% 29.63 in 0.8 mi WSW 8.1 mph - 0.26 in Rain Heavy Rain
2:11 AM 72.0 °F 71.1 °F 97% 29.63 in 1.0 mi SSW 9.2 mph 23.0 mph 0.38 in Rain Heavy Rain
2:20 AM 72.0 °F 71.1 °F 97% 29.62 in 2.0 mi WSW 12.7 mph 21.9 mph 0.44 in Rain Light Rain
2:22 AM 73.0 °F 71.1 °F 93% 29.62 in 3.0 mi WSW 16.1 mph 23.0 mph 0.44 in Rain Light Rain
2:24 AM 73.0 °F 71.1 °F 93% 29.62 in 6.0 mi SW 20.7 mph 27.6 mph 0.44 in Rain Light Rain
2:51 AM 73.4 °F 69.8 °F 88% 29.62 in 10.0 mi SW 17.3 mph 29.9 mph 0.44 in Rain , Thunderstorm Light Thunderstorms and Rain
2:53 AM 73.0 °F 70.0 °F 90% 29.63 in 10.0 mi SW 19.6 mph 29.9 mph 0.45 in Rain , Thunderstorm Light Thunderstorms and Rain
3:06 AM 73.0 °F 70.0 °F 90% 29.61 in 10.0 mi SW 19.6 mph 25.3 mph 0.00 in   Overcast
3:17 AM 73.0 °F 70.0 °F 90% 29.61 in 1.8 mi WSW 27.6 mph 38.0 mph 0.10 in Rain Heavy Rain
3:25 AM 71.1 °F 69.1 °F 93% 29.62 in 3.0 mi West 17.3 mph 38.0 mph 0.11 in Rain Light Rain
3:35 AM 71.1 °F 68.0 °F 90% 29.62 in 7.0 mi West 17.3 mph 29.9 mph 0.12 in Rain Light Rain
3:45 AM 69.1 °F 66.9 °F 93% 29.62 in 4.0 mi West 16.1 mph 26.5 mph 0.15 in Rain , Thunderstorm Rain
3:53 AM 70.0 °F 66.9 °F 90% 29.65 in 5.0 mi WSW 16.1 mph 26.5 mph 0.16 in Rain , Thunderstorm Light Rain
4:03 AM 70.0 °F 66.9 °F 90% 29.63 in 4.0 mi West 13.8 mph - 0.03 in Rain Rain
4:53 AM 66.0 °F 64.0 °F 93% 29.67 in 6.0 mi NW 11.5 mph - 0.10 in Rain Light Rain
5:07 AM 64.9 °F 62.1 °F 90% 29.66 in 10.0 mi NW 13.8 mph - 0.01 in Rain Light Rain
5:28 AM 64.0 °F 61.0 °F 90% 29.70 in 10.0 mi NW 13.8 mph - 0.02 in   Overcast
5:45 AM 64.0 °F 61.0 °F 90% 29.71 in 10.0 mi NW 12.7 mph - 0.02 in   Overcast
5:53 AM 63.0 °F 61.0 °F 93% 29.73 in 10.0 mi NW 10.4 mph - 0.02 in   Overcast
6:53 AM 63.0 °F 61.0 °F 93% 29.77 in 10.0 mi West 9.2 mph - N/A   Overcast
7:30 AM 63.0 °F 61.0 °F 93% 29.79 in 10.0 mi NW 13.8 mph - N/A   Overcast
7:48 AM 62.6 °F 60.8 °F 94% 29.81 in 10.0 mi WNW 13.8 mph - N/A   Overcast
7:53 AM 63.0 °F 60.1 °F 90% 29.83 in 10.0 mi WNW 12.7 mph - N/A   Overcast
8:43 AM 62.1 °F 57.9 °F 86% 29.85 in 10.0 mi WNW 13.8 mph - N/A   Mostly Cloudy
8:53 AM 62.1 °F 57.9 °F 86% 29.88 in 10.0 mi WNW 17.3 mph - N/A   Scattered Clouds
9:04 AM 61.0 °F 57.0 °F 87% 29.88 in 10.0 mi WNW 15.0 mph - N/A   Mostly Cloudy
9:13 AM 61.0 °F 57.0 °F 87% 29.89 in 10.0 mi WNW 17.3 mph 26.5 mph N/A   Mostly Cloudy
9:27 AM 63.0 °F 57.0 °F 81% 29.89 in 10.0 mi NW 17.3 mph 21.9 mph N/A   Scattered Clouds
9:53 AM 64.0 °F 55.0 °F 73% 29.92 in 10.0 mi NW 13.8 mph 24.2 mph N/A   Partly Cloudy
10:53 AM 66.9 °F 55.0 °F 66% 29.94 in 10.0 mi NW 13.8 mph - N/A   Partly Cloudy
11:53 AM 69.1 °F 53.1 °F 57% 29.95 in 10.0 mi WNW 17.3 mph - N/A   Clear
12:53 PM 70.0 °F 52.0 °F 53% 29.94 in 10.0 mi West 11.5 mph 20.7 mph N/A   Clear
1:53 PM 72.0 °F 50.0 °F 46% 29.93 in 10.0 mi WNW 12.7 mph 18.4 mph N/A   Clear
2:53 PM 73.0 °F 48.9 °F 42% 29.93 in 10.0 mi NW 9.2 mph - N/A   Clear
3:53 PM 73.0 °F 50.0 °F 44% 29.93 in 10.0 mi West 5.8 mph - N/A   Partly Cloudy
4:53 PM 73.0 °F 48.9 °F 42% 29.93 in 10.0 mi Variable 5.8 mph - N/A   Clear
5:53 PM 73.0 °F 48.0 °F 41% 29.93 in 10.0 mi Calm Calm - N/A   Clear
6:53 PM 72.0 °F 46.9 °F 41% 29.96 in 10.0 mi WSW 8.1 mph - N/A   Clear
7:53 PM 66.0 °F 57.9 °F 75% 29.99 in 10.0 mi ENE 10.4 mph - N/A   Mostly Cloudy
8:53 PM 62.1 °F 57.0 °F 84% 30.02 in 10.0 mi ENE 15.0 mph - N/A   Clear
9:27 PM 61.0 °F 55.9 °F 83% 30.03 in 10.0 mi ENE 11.5 mph - N/A   Mostly Cloudy
9:45 PM 60.1 °F 55.9 °F 86% 30.04 in 10.0 mi East 12.7 mph - N/A   Overcast
9:53 PM 60.1 °F 55.9 °F 86% 30.06 in 10.0 mi East 11.5 mph - N/A   Overcast
10:51 PM 60.8 °F 55.4 °F 82% 30.06 in 10.0 mi ENE 9.2 mph - N/A   Overcast
10:53 PM 60.1 °F 55.9 °F 86% 30.08 in 10.0 mi ENE 9.2 mph - N/A   Overcast
11:53 PM 61.0 °F 55.0 °F 81% 30.08 in 10.0 mi NE 8.1 mph - N/A   Overcast